When you browse on this site, cookies collect data to enhance your experience and personalize the content and advertising you see.
Visit our Privacy Policy to learn more. By continuing to use the site, you agree to this use of cookies and data.

Tiempo cada hora Shusha

Hoy, 10 Julio, Viernes

Tiempo Temperatura Precipitaciones Viento Presión Humedad
00:00 +21°C° 0 mm 1 mps 659 mmHg 69%
01:00 +21°C° 0.1 mm 1 mps 659 mmHg 70%
02:00 +21°C° 0.1 mm 1 mps 659 mmHg 71%
03:00 +20°C° 0.1 mm 1 mps 659 mmHg 72%
04:00 +20°C° 0.1 mm 1 mps 659 mmHg 72%
05:00 +21°C° 0.1 mm 1 mps 660 mmHg 71%
06:00 +21°C° 0.1 mm 1 mps 660 mmHg 70%
07:00 +21°C° 0 mm 2 mps 660 mmHg 66%
08:00 +23°C° 0 mm 2 mps 661 mmHg 61%
09:00 +25°C° 0 mm 3 mps 661 mmHg 56%
10:00 +25°C° 0 mm 3 mps 661 mmHg 56%
11:00 +25°C° 0 mm 3 mps 661 mmHg 57%
12:00 +25°C° 0 mm 3 mps 661 mmHg 57%
13:00 +26°C° 0.1 mm 3 mps 660 mmHg 56%
14:00 +26°C° 0.1 mm 3 mps 660 mmHg 55%
15:00 +26°C° 0.1 mm 3 mps 660 mmHg 54%
16:00 +26°C° 0.2 mm 3 mps 660 mmHg 57%
17:00 +25°C° 0.2 mm 3 mps 660 mmHg 60%
18:00 +24°C° 0.2 mm 3 mps 660 mmHg 63%
19:00 +22°C° 1.2 mm 3 mps 660 mmHg 70%
20:00 +20°C° 1.2 mm 2 mps 660 mmHg 78%
21:00 +20°C° 1.2 mm 1 mps 660 mmHg 86%
22:00 +19°C° 0.1 mm 1 mps 660 mmHg 86%
23:00 +19°C° 0.1 mm 1 mps 660 mmHg 86%

Mañana, 11 Julio, Sábado

Tiempo Temperatura Precipitaciones Viento Presión Humedad
00:00 +19°C° 0.1 mm 1 mps 660 mmHg 87%
01:00 +18°C° 0.1 mm 1 mps 660 mmHg 85%
02:00 +18°C° 0.1 mm 1 mps 660 mmHg 84%
03:00 +18°C° 0.1 mm 1 mps 660 mmHg 82%
04:00 +18°C° 0.2 mm 1 mps 660 mmHg 80%
05:00 +19°C° 0.2 mm 1 mps 660 mmHg 79%
06:00 +19°C° 0.2 mm 1 mps 660 mmHg 77%
07:00 +20°C° 0 mm 1 mps 660 mmHg 72%
08:00 +20°C° 0 mm 2 mps 661 mmHg 67%
09:00 +21°C° 0 mm 3 mps 661 mmHg 63%
10:00 +23°C° 0 mm 2 mps 661 mmHg 62%
11:00 +23°C° 0 mm 2 mps 661 mmHg 61%
12:00 +23°C° 0 mm 2 mps 660 mmHg 60%
13:00 +24°C° 0 mm 2 mps 660 mmHg 60%
14:00 +24°C° 0 mm 2 mps 660 mmHg 60%
15:00 +24°C° 0 mm 2 mps 660 mmHg 60%
16:00 +24°C° 0 mm 2 mps 660 mmHg 61%
17:00 +23°C° 0 mm 1 mps 660 mmHg 62%
18:00 +23°C° 0 mm 1 mps 660 mmHg 63%
19:00 +22°C° 0 mm 1 mps 660 mmHg 66%
20:00 +22°C° 0 mm 1 mps 660 mmHg 68%
21:00 +21°C° 0 mm 1 mps 660 mmHg 71%
22:00 +20°C° 0 mm 1 mps 660 mmHg 72%
23:00 +20°C° 0 mm 1 mps 659 mmHg 74%

Pasado mañana, 12 Julio, Domingo

Tiempo Temperatura Precipitaciones Viento Presión Humedad
00:00 +19°C° 0 mm 1 mps 659 mmHg 75%
01:00 +19°C° 0 mm 1 mps 659 mmHg 76%
02:00 +18°C° 0 mm 1 mps 659 mmHg 76%
03:00 +18°C° 0 mm 1 mps 658 mmHg 77%
04:00 +19°C° 0 mm 1 mps 658 mmHg 75%
05:00 +19°C° 0 mm 1 mps 658 mmHg 73%
06:00 +20°C° 0 mm 1 mps 658 mmHg 70%
07:00 +21°C° 0 mm 1 mps 659 mmHg 63%
08:00 +23°C° 0 mm 2 mps 659 mmHg 56%
09:00 +24°C° 0 mm 2 mps 660 mmHg 49%
10:00 +25°C° 0 mm 2 mps 659 mmHg 48%
11:00 +26°C° 0 mm 3 mps 659 mmHg 46%
12:00 +27°C° 0 mm 3 mps 659 mmHg 45%
13:00 +27°C° 0 mm 3 mps 659 mmHg 45%
14:00 +27°C° 0 mm 3 mps 659 mmHg 46%
15:00 +27°C° 0 mm 3 mps 658 mmHg 47%
16:00 +27°C° 0 mm 3 mps 658 mmHg 49%
17:00 +26°C° 0 mm 2 mps 658 mmHg 51%
18:00 +26°C° 0 mm 2 mps 658 mmHg 53%
19:00 +24°C° 0 mm 1 mps 658 mmHg 58%
20:00 +23°C° 0 mm 1 mps 657 mmHg 63%
21:00 +19°C° 0 mm 0 mps 657 mmHg 67%
22:00 +21°C° 0 mm 1 mps 657 mmHg 68%
23:00 +20°C° 0 mm 2 mps 657 mmHg 69%

13 Julio, Lunes

Tiempo Temperatura Precipitaciones Viento Presión Humedad
00:00 +19°C° 0 mm 2 mps 657 mmHg 70%
01:00 +19°C° 0 mm 2 mps 656 mmHg 71%
02:00 +19°C° 0 mm 2 mps 656 mmHg 72%
03:00 +19°C° 0 mm 1 mps 655 mmHg 73%
04:00 +20°C° 0 mm 1 mps 656 mmHg 71%
05:00 +21°C° 0 mm 1 mps 656 mmHg 70%
06:00 +21°C° 0 mm 1 mps 656 mmHg 68%
07:00 +23°C° 0 mm 2 mps 656 mmHg 62%
08:00 +24°C° 0 mm 2 mps 657 mmHg 56%
09:00 +26°C° 0 mm 2 mps 657 mmHg 50%
10:00 +27°C° 0.1 mm 2 mps 657 mmHg 47%
11:00 +28°C° 0.1 mm 3 mps 657 mmHg 45%
12:00 +29°C° 0.1 mm 3 mps 657 mmHg 42%
13:00 +29°C° 0.3 mm 3 mps 657 mmHg 43%
14:00 +29°C° 0.3 mm 3 mps 656 mmHg 43%
15:00 +29°C° 0.3 mm 3 mps 656 mmHg 44%
16:00 +29°C° 0.4 mm 2 mps 656 mmHg 47%
17:00 +28°C° 0.4 mm 2 mps 656 mmHg 49%
18:00 +27°C° 0.4 mm 1 mps 656 mmHg 52%
19:00 +25°C° 0.5 mm 2 mps 656 mmHg 58%
20:00 +24°C° 0.5 mm 2 mps 656 mmHg 63%
21:00 +21°C° 0.5 mm 2 mps 656 mmHg 68%
22:00 +21°C° 0.2 mm 2 mps 656 mmHg 68%
23:00 +21°C° 0.2 mm 2 mps 656 mmHg 68%

14 Julio, Martes

Tiempo Temperatura Precipitaciones Viento Presión Humedad
00:00 +22°C° 0.2 mm 1 mps 656 mmHg 68%
01:00 +21°C° 0.3 mm 1 mps 656 mmHg 69%
02:00 +21°C° 0.3 mm 1 mps 656 mmHg 71%
03:00 +20°C° 0.3 mm 1 mps 656 mmHg 73%
04:00 +20°C° 0.1 mm 1 mps 656 mmHg 71%
05:00 +21°C° 0.1 mm 1 mps 656 mmHg 70%
06:00 +22°C° 0.1 mm 1 mps 657 mmHg 69%
07:00 +23°C° 0.1 mm 1 mps 657 mmHg 65%
08:00 +24°C° 0.1 mm 1 mps 658 mmHg 61%
09:00 +26°C° 0.1 mm 2 mps 658 mmHg 57%
10:00 +27°C° 0.2 mm 2 mps 658 mmHg 54%
11:00 +28°C° 0.2 mm 2 mps 658 mmHg 51%
12:00 +29°C° 0.2 mm 3 mps 659 mmHg 48%
13:00 +29°C° 0.5 mm 3 mps 658 mmHg 47%
14:00 +29°C° 0.5 mm 3 mps 658 mmHg 47%
15:00 +29°C° 0.5 mm 3 mps 658 mmHg 46%
16:00 +29°C° 0.6 mm 2 mps 658 mmHg 49%
17:00 +28°C° 0.6 mm 2 mps 658 mmHg 52%
18:00 +27°C° 0.6 mm 1 mps 658 mmHg 55%
19:00 +26°C° 0.5 mm 1 mps 658 mmHg 59%
20:00 +24°C° 0.5 mm 1 mps 658 mmHg 62%
21:00 +23°C° 0.5 mm 1 mps 658 mmHg 66%
22:00 +21°C° 0 mm 2 mps 658 mmHg 65%
23:00 +21°C° 0 mm 2 mps 658 mmHg 65%

15 Julio, Miércoles

Tiempo Temperatura Precipitaciones Viento Presión Humedad
00:00 +21°C° 0 mm 2 mps 658 mmHg 64%
01:00 +21°C° 0 mm 2 mps 658 mmHg 65%
02:00 +21°C° 0 mm 1 mps 658 mmHg 65%
03:00 +21°C° 0 mm 1 mps 658 mmHg 66%
04:00 +22°C° 0 mm 1 mps 658 mmHg 66%
05:00 +22°C° 0 mm 1 mps 658 mmHg 67%
06:00 +23°C° 0 mm 1 mps 659 mmHg 67%
07:00 +24°C° 0.1 mm 1 mps 659 mmHg 63%
08:00 +25°C° 0.1 mm 1 mps 659 mmHg 60%
09:00 +26°C° 0.1 mm 2 mps 660 mmHg 56%
10:00 +27°C° 0.3 mm 2 mps 660 mmHg 53%
11:00 +28°C° 0.3 mm 2 mps 660 mmHg 51%
12:00 +29°C° 0.3 mm 3 mps 660 mmHg 48%
13:00 +30°C° 0.3 mm 3 mps 659 mmHg 47%
14:00 +30°C° 0.3 mm 3 mps 659 mmHg 46%
15:00 +30°C° 0.3 mm 3 mps 659 mmHg 45%
16:00 +29°C° 0.5 mm 2 mps 659 mmHg 48%
17:00 +29°C° 0.5 mm 2 mps 658 mmHg 52%
18:00 +28°C° 0.5 mm 1 mps 658 mmHg 55%
19:00 +26°C° 0.5 mm 1 mps 658 mmHg 58%
20:00 +25°C° 0.5 mm 1 mps 658 mmHg 62%
21:00 +23°C° 0.5 mm 1 mps 658 mmHg 66%
22:00 +23°C° 0.3 mm 1 mps 658 mmHg 66%
23:00 +21°C° 0.3 mm 2 mps 658 mmHg 67%
Mostrar más